Starlink 5176

operational
NORAD ID: 54053 Int'l Des: 2022-136 Owner: SPXS Country: US Constellation: starlink
LEOCIRCULAR

Starlink 5176について

説明を読み込み中...

リアルタイム位置

3D地球を読み込み中...

次回通過

高度履歴

Altitude vs Time

uPlot chart will show altitude changes over time

軌道要素

1 54053U 22136C 26034.52701139 -.00001712 00000-0 -89462-4 0 9990
2 54053 53.2185 137.6898 0001493 106.0431 254.0725 15.08847365181683
Epoch: Feb 3, 2026 • Age: 11 hours

現在のステータス

高度 540.8 km
速度 7.60 km/s
衛星直下点 27.67°N, 25.37°E
打ち上げ日 Oct 20, 2022
運用期間 3.2 years
タイプ internet

技術仕様

分類 Payload
質量 305.00 kg
乾燥質量 290.00 kg
総質量 305.00 kg
長さ 0.20 m
直径 2.80 m
スパン 9.00 m
形状 Box + pan
製造者 SPXS
バスタイプ Starlink
フェーズステータス In Orbit
所有者/国 SPXS/US

大規模コンステレーション

Loading constellations...